Home > Weather > Cumberland County > Past weeks

Flag for Canada Past Weather in Cumberland County, Nova Scotia, Canada — Yesterday and Last 2 Weeks

Now
66 °F

Mild.


Feels Like: 66 °F
Forecast: 44 / 62 °F
Wind: 7 mph from Northeast

Location: Kentville

Current Time: May 28, 2016 at 5:16:54 PM

Latest Report: May 28, 2016 at 4:00 PM


Visibility: N/A

Pressure: 30.08 "Hg

Humidity: 69%

Dew Point: 56 °F

Location of Cumberland CountyLocation

Past Weather in Cumberland County — Graph

°F

Cumberland County Temperature Yesterday

Maximum temperature yesterday: 58 °F (at 5:00 PM)
Minimum temperature yesterday: 42 °F (at 6:00 AM)
Average temperature yesterday: 49 °F

High & Low Weather Summary for the Past Weeks

 TemperatureHumidityPressure
High77 °F (May 21, 4:00 PM)99% (May 15, 3:00 AM)30.28 "Hg (May 15, 3:00 AM)
Low37 °F (May 19, 6:00 AM)21% (May 21, 5:00 PM)29.43 "Hg (May 15, 6:00 PM)
Average55 °F74%29.92 "Hg
* Reported May 13 4:00 PM — May 28 4:00 PM, Cumberland County, Weather by CustomWeather, © 2016

Note: Actual official high and low records may vary slightly from our data, if they occured in-between our weather recording intervals... More about our weather records

Advertising

Cumberland County Weather History for the Previous 24 Hours

Scroll right to see more
 ConditionsComfort  
Time TempWeatherWind HumidityBarometerVisibility
4:00 PM
Sat, May 28
66 °FMild.7 mph69%30.08 "HgN/A
3:00 PM65 °FMild.8 mph74%30.07 "HgN/A
2:00 PM66 °FMild.6 mph73%30.05 "HgN/A
1:00 PM64 °FMild.7 mph76%30.05 "HgN/A
12:00 PM62 °FMild.5 mph82%30.04 "HgN/A
11:00 AM59 °FCool.6 mph86%30.03 "HgN/A
10:00 AM58 °FCool.5 mph84%30.03 "HgN/A
9:00 AM56 °FCool.5 mph94%30.04 "HgN/A
8:00 AM55 °FCool.3 mph94%30.02 "HgN/A
7:00 AM53 °FCool.2 mph96%30.01 "HgN/A
6:00 AM53 °FCool.No wind96%30.01 "HgN/A
5:00 AM53 °FCool.1 mph95%29.99 "HgN/A
4:00 AM53 °FCool.1 mph95%29.99 "HgN/A
3:00 AM53 °FCool.3 mph92%30.05 "HgN/A
2:00 AM53 °FCool.5 mph90%30.08 "HgN/A
1:00 AM53 °FCool.3 mph89%30.04 "HgN/A
12:00 AM52 °FCool.2 mph88%30.06 "HgN/A
11:00 PM
Fri, May 27
51 °FCool.6 mph87%30.08 "HgN/A
10:00 PM51 °FCool.7 mph87%30.09 "HgN/A
9:00 PM52 °FCool.6 mph84%30.11 "HgN/A
8:00 PM53 °FCool.5 mph82%30.13 "HgN/A
7:00 PM55 °FCool.7 mph77%30.14 "HgN/A
6:00 PM57 °FCool.6 mph73%30.15 "HgN/A
5:00 PM58 °FCool.6 mph75%30.17 "HgN/A
Weather by CustomWeather, © 2016

See weather overviewHow to use our weather pages